TimeEDT,TemperatureF,Dew PointF,Humidity,Sea Level PressureIn,VisibilityMPH,Wind Direction,Wind SpeedMPH,Gust SpeedMPH,PrecipitationIn,Events,Conditions,WindDirDegrees,DateUTC
12:54 AM,32.0,28.9,88,29.86,10.0,WNW,6.9,-,N/A,,Clear,300,2013-10-23 04:54:00
1:54 AM,32.0,28.9,88,29.86,10.0,WNW,4.6,-,N/A,,Clear,290,2013-10-23 05:54:00
2:54 AM,32.0,28.9,88,29.85,10.0,WNW,4.6,-,N/A,,Clear,290,2013-10-23 06:54:00
3:54 AM,32.0,28.0,85,29.85,10.0,WNW,4.6,-,N/A,,Clear,300,2013-10-23 07:54:00
4:54 AM,32.0,30.0,92,29.83,10.0,WNW,3.5,-,0.00,,Overcast,300,2013-10-23 08:54:00
5:54 AM,28.9,27.0,92,29.83,10.0,WSW,3.5,-,N/A,,Clear,250,2013-10-23 09:54:00
6:54 AM,28.9,27.0,92,29.84,10.0,West,3.5,-,N/A,,Clear,280,2013-10-23 10:54:00
7:54 AM,27.0,26.1,96,29.84,10.0,Calm,Calm,-,N/A,,Clear,0,2013-10-23 11:54:00
8:54 AM,30.0,28.0,92,29.85,10.0,WSW,3.5,-,N/A,,Clear,250,2013-10-23 12:54:00
9:54 AM,34.0,28.9,82,29.86,10.0,West,5.8,-,N/A,,Clear,260,2013-10-23 13:54:00
10:54 AM,37.9,28.9,70,29.84,10.0,West,5.8,-,N/A,,Clear,270,2013-10-23 14:54:00
11:54 AM,41.0,28.0,60,29.84,10.0,West,8.1,-,N/A,,Clear,280,2013-10-23 15:54:00
12:54 PM,43.0,26.1,51,29.83,10.0,WNW,8.1,-,N/A,,Mostly Cloudy,290,2013-10-23 16:54:00
1:54 PM,35.1,30.0,82,29.83,2.0,West,9.2,21.9,0.00,Snow,Light Snow,260,2013-10-23 17:54:00
2:09 PM,35.6,30.2,81,29.80,9.0,WSW,5.8,-,0.00,,Overcast,240,2013-10-23 18:09:00
2:54 PM,37.9,30.0,73,29.83,8.0,NW,12.7,31.1,0.00,Rain,Light Rain,320,2013-10-23 18:54:00
3:54 PM,39.9,28.0,63,29.82,10.0,NW,9.2,26.5,0.00,,Mostly Cloudy,310,2013-10-23 19:54:00
4:54 PM,42.1,28.0,58,29.82,10.0,Variable,4.6,-,0.01,,Partly Cloudy,0,2013-10-23 20:54:00
5:54 PM,37.9,30.0,73,29.84,10.0,Variable,5.8,-,0.00,,Overcast,0,2013-10-23 21:54:00
6:54 PM,34.0,30.0,85,29.86,10.0,West,3.5,-,N/A,,Clear,260,2013-10-23 22:54:00
7:33 PM,35.6,30.2,81,29.84,8.0,West,5.8,-,0.00,Snow,Light Snow,270,2013-10-23 23:33:00
7:54 PM,34.0,30.9,89,29.86,10.0,WSW,5.8,-,0.00,,Scattered Clouds,250,2013-10-23 23:54:00
8:54 PM,33.1,30.9,92,29.86,10.0,WSW,6.9,-,N/A,,Clear,240,2013-10-24 00:54:00
9:54 PM,32.0,30.0,92,29.86,10.0,WSW,4.6,-,N/A,,Clear,250,2013-10-24 01:54:00
10:54 PM,32.0,30.0,92,29.86,10.0,West,3.5,-,N/A,,Clear,260,2013-10-24 02:54:00
11:54 PM,33.1,30.9,92,29.86,10.0,WSW,5.8,-,N/A,,Mostly Cloudy,250,2013-10-24 03:54:00